Simultaneous Nadir Overpasses (SNOs) Predictions

Prediction of SNOs between FY3D and NOAA-19 Satellite Orbit:

Table of predicted SNOs for the next 14.0 days since TLE Epoch: 6/11/2022
Index Date (FY3D) Time (FY3D) Lat,Lon (FY3D) SZA (FY3D ) Date (NOAA-19) Time (NOAA-19) Lat,Lon (NOAA-19) SZA (NOAA-19 ) Distance(km) Time Diff (sec)
1 06/17/2022 02:03:57 77.39, 132.76 54.53 06/17/2022 02:02:44 77.38, 131.88 54.60 21.41 73
2 06/17/2022 02:54:44 -77.47, -60.29 125.37 06/17/2022 02:53:37 -77.47, -60.39 125.35 2.63 67
3 06/17/2022 03:45:31 77.51, 106.86 54.67 06/17/2022 03:44:41 77.49, 106.96 54.67 2.66 50
4 06/17/2022 04:36:16 -77.50, -85.79 125.34 06/17/2022 04:35:36 -77.51, -85.71 125.33 2.06 40
5 06/17/2022 05:27:02 77.49, 81.55 54.65 06/17/2022 05:26:41 77.49, 81.44 54.67 2.64 21
6 06/17/2022 06:17:48 -77.53,-111.30 125.31 06/17/2022 06:17:36 -77.50,-111.23 125.33 3.21 12
7 06/17/2022 07:08:34 77.52, 56.05 54.68 06/17/2022 07:08:40 77.53, 56.13 54.69 2.14 6
8 06/17/2022 07:59:19 -77.51,-136.61 125.33 06/17/2022 07:59:35 -77.54,-136.55 125.31 3.20 16
9 06/17/2022 08:50:06 77.55, 30.54 54.72 06/17/2022 08:50:40 77.52, 30.61 54.68 3.08 34
10 06/17/2022 09:40:51 -77.54,-162.12 125.30 06/17/2022 09:41:35 -77.53,-162.07 125.32 1.40 44
11 06/17/2022 10:31:37 77.53, 5.23 54.70 06/17/2022 10:32:39 77.56, 5.29 54.70 3.37 62
12 06/17/2022 11:22:22 -77.52, 172.57 125.32 06/17/2022 11:23:35 -77.53, 172.42 125.32 3.77 73



Historial Predications of SNOs between FY3D and NOAA-19
